CW0565 Weather Reports


Display with metric or nautical units.
time (UTC)temp
F
wind
direction
speed
MPH
gust
MPH
rain 1hr
in
rain 24hr
in
rain mn
in
humidity
%
barometer
mb
20260502231510 47 164 0.0 0.0 0.00 0.02 0.00 87 1008.8
20260502230012 48 164 0.0 0.0 0.00 0.02 0.00 87 1008.8
20260502224509 48 163 0.0 2.0 0.00 0.02 0.00 87 1008.7
20260502223009 49 164 0.0 0.0 0.00 0.02 0.00 86 1008.7
20260502221509 50 164 0.0 3.0 0.00 0.02 0.00 85 1008.6
20260502220010 50 164 1.0 5.0 0.00 0.02 0.02 85 1008.6
20260502214512 51 164 0.0 2.0 0.00 0.02 0.02 81 1008.8
20260502213010 50 165 0.0 3.0 0.00 0.02 0.02 81 1008.8
20260502211519 50 165 1.0 4.0 0.00 0.02 0.02 83 1009.2
20260502210015 50 165 1.0 3.0 0.00 0.02 0.02 84 1009.4
20260502204510 50 164 1.0 3.0 0.00 0.02 0.02 83 1009.3
20260502203011 50 165 0.0 3.0 0.00 0.02 0.02 83 1009.1
20260502201509 50 165 0.0 5.0 0.00 0.02 0.02 84 1009.1
20260502200010 50 165 3.0 6.0 0.00 0.02 0.02 85 1009.2
20260502194509 50 164 4.0 9.0 0.00 0.02 0.02 87 1009.2
20260502193009 50 163 4.0 6.0 0.00 0.02 0.02 88 1009.2
20260502191509 51 163 4.0 7.0 0.00 0.02 0.02 87 1008.8
20260502190010 51 165 3.0 8.0 0.00 0.02 0.02 90 1008.9
20260502184509 52 166 4.0 7.0 0.00 0.02 0.02 86 1008.9
20260502183018 52 161 4.0 7.0 0.00 0.02 0.02 84 1008.9
20260502181516 52 163 3.0 7.0 0.00 0.02 0.02 85 1009.1
20260502163017 58 166 3.0 7.0 0.01 0.01 0.01 57 1009.3
20260502161509 61 182 5.0 13.0 0.00 0.00 0.00 38 1009.8
20260502151511 66 242 4.0 12.0 0.00 0.00 0.00 27 1009.9
20260502123015 65 155 11.0 17.0 0.00 0.00 0.00 33 1010.5
20260502121513 65 166 9.0 17.0 0.00 0.00 0.00 33 1010.5
20260502114509 64 164 7.0 13.0 0.00 0.00 0.00 37 1010.7
20260502113009 65 165 7.0 14.0 0.00 0.00 0.00 40 1010.8
20260502111509 65 153 6.0 12.0 0.00 0.00 0.00 36 1010.8
20260502110010 64 130 7.0 11.0 0.00 0.00 0.00 34 1011.0
20260502104509 64 177 7.0 11.0 0.00 0.00 0.00 42 1011.1
20260502103011 65 139 2.0 9.0 0.00 0.00 0.00 31 1011.3
20260502101529 64 164 4.0 11.0 0.00 0.00 0.00 29 1011.7
20260502091511 62 184 5.0 11.0 0.00 0.00 0.00 35 1012.3
20260502071509 51 355 0.0 2.0 0.00 0.00 0.00 57 1013.2
20260502070012 50 355 0.0 1.0 0.00 0.00 0.00 60 1013.3
20260502064511 49 355 0.0 1.0 0.00 0.00 0.00 62 1013.5
20260502063010 47 355 0.0 1.0 0.00 0.00 0.00 64 1013.7
20260502061510 48 355 0.0 1.0 0.00 0.00 0.00 63 1013.9
20260502060013 47 355 0.0 1.0 0.00 0.00 0.00 65 1014.0
20260502054509 45 355 0.0 0.0 0.00 0.00 0.00 68 1014.2
20260502053010 43 355 0.0 1.0 0.00 0.00 0.00 72 1014.3
20260502051510 41 355 0.0 1.0 0.00 0.00 0.00 81 1014.3
20260502050010 38 355 0.0 2.0 0.00 0.00 0.00 84 1014.5
20260502044512 36 355 1.0 5.0 0.00 0.00 0.00 85 1014.6
20260502043010 36 14 2.0 5.0 0.00 0.00 0.00 85 1014.8
20260502041510 36 13 0.0 4.0 0.00 0.00 0.00 85 1015.0
20260502040010 36 15 1.0 4.0 0.00 0.00 0.00 85 1015.2
20260502034520 36 14 0.0 4.0 0.00 0.00 0.00 84 1015.3
20260502033010 36 14 1.0 5.0 0.00 0.00 0.00 84 1015.6
20260502031510 37 28 1.0 5.0 0.00 0.00 0.00 83 1015.9
20260502030010 37 13 2.0 5.0 0.00 0.00 0.00 82 1016.1
20260502024510 38 10 0.0 0.0 0.00 0.00 0.00 82 1016.3
20260502023010 38 9 0.0 2.0 0.00 0.00 0.00 82 1016.6
20260502021509 38 9 0.0 0.0 0.00 0.00 0.00 81 1016.9
20260502020009 38 9 0.0 0.0 0.00 0.00 0.00 80 1017.1
20260502014509 38 9 0.0 0.0 0.00 0.00 0.00 80 1017.1
20260502013010 39 9 0.0 1.0 0.00 0.00 0.00 80 1017.2
20260502011520 39 13 0.0 6.0 0.00 0.00 0.00 80 1017.3
20260502010013 39 17 0.0 4.0 0.00 0.00 0.00 79 1017.7
20260502004510 40 176 0.0 3.0 0.00 0.00 0.00 78 1017.9
20260502003009 40 178 0.0 2.0 0.00 0.00 0.00 77 1018.2
20260502001512 41 178 0.0 2.0 0.00 0.00 0.00 76 1018.3
20260502000010 41 178 0.0 1.0 0.00 0.00 0.00 74 1018.6
20260501234509 42 178 0.0 1.0 0.00 0.00 0.00 73 1018.7
20260501233018 42 178 0.0 2.0 0.00 0.00 0.00 72 1018.8